Monte Scuro, Italy

4:22 PM CEST on June 27, 2017 (GMT +0200)
Monte Scuro

Weather History for LIBQ - June, 2014

Change the Weather History Date:

Tuesday, June 10, 2014

  Actual Average Record
Temperature  
Mean Temperature 57 °F -  
Max Temperature 63 °F 63 °F 78 °F (2001)
Min Temperature 51 °F 51 °F 41 °F (2002)
Degree Days  
Heating Degree Days 8    
Growing Degree Days 7 (Base 50)    
Moisture  
Dew Point 48 °F    
Average Humidity 70    
Maximum Humidity 100    
Minimum Humidity 33    
Precipitation  
Precipitation 0.00 in 0.04 in - ()
Sea Level Pressure  
Sea Level Pressure 30.21 in    
Wind  
Wind Speed 15 mph ()    
Max Wind Speed 31 mph    
Max Gust Speed -    
Visibility 9.6 miles    
Events      
Averages and records for this station are not official NWS values.
T = Trace of Precipitation, MM = Missing Value Source: Averaged Metar Reports

Daily Weather History Graph

Daily Weather History Graph

Search for Another Location

Airport or City:

Trip Planner

Search our weather history database for the weather conditions in past years. The results will help you decide how hot, cold, wet, or windy it might be!

Date:

Astronomy

Jun. 10, 2014 Rise Set
Actual Time 5:27 AM CEST 8:20 PM CEST
Civil Twilight 4:55 AM CEST 8:52 PM CEST
Nautical Twilight 4:14 AM CEST 9:33 PM CEST
Astronomical Twilight 3:28 AM CEST 10:19 PM CEST
Moon 5:27 PM CEST (6/10) 3:20 AM CEST (6/10)
Length of Visible Light 15h 57m
Length of Day
14h 53m
Waxing Gibbous, 90% of the Moon is Illuminated
Jun 10
Waxing Gibbous
Jun 13
Full
Jun 19
Last Quarter
Jun 27
New
Jul 5
First Quarter

Hourly Weather History & Observations

Time (CEST) Temp. Dew Point Humidity Pressure Visibility Wind Dir Wind Speed Gust Speed Precip Events Conditions
12:00 AM 54 °F 51 °F 85%  in 9 mi NE 25.3 mph - -   Scattered Clouds
12:55 AM 53.6 °F 51.8 °F 94% 30.21 in 6.2 mi NE 31.1 mph - N/A   Partly Cloudy
1:00 AM 53 °F 52 °F 96%  in 9 mi NE 31.1 mph - -   Scattered Clouds
1:55 AM 53.6 °F 51.8 °F 94% 30.21 in 6.2 mi NE 23.0 mph - N/A   Partly Cloudy
2:00 AM 53 °F 52 °F 97%  in 9 mi NE 23.0 mph - -  
2:55 AM 53.6 °F 51.8 °F 94% 30.21 in 6.2 mi NE 19.6 mph - N/A   Partly Cloudy
3:00 AM 53 °F 52 °F 97%  in 9 mi NE 19.6 mph - -   Scattered Clouds
3:55 AM 51.8 °F 51.8 °F 100% 30.18 in 6.2 mi NE 17.3 mph - N/A   Scattered Clouds
4:00 AM 53 °F 51 °F 92%  in 9 mi NE 17.3 mph - -   Partly Cloudy
4:55 AM 53.6 °F 51.8 °F 94% 30.18 in - NE 18.4 mph - N/A   Clear
5:00 AM 53 °F 52 °F 94%  in 9 mi NE 18.4 mph - -   Partly Cloudy
6:00 AM 53 °F 50 °F 85%  in 9 mi ENE 17.3 mph - -   Partly Cloudy
6:55 AM 53.6 °F 51.8 °F 94% 30.18 in - NE 15.0 mph - N/A   Clear
7:00 AM 54 °F 51 °F 88%  in 9 mi NE 15.0 mph - -   Partly Cloudy
7:55 AM 57.2 °F 46.4 °F 67% 30.21 in - ENE 17.3 mph - N/A   Clear
8:00 AM 57 °F 47 °F 61%  in 12 mi ENE 17.3 mph - -  
8:55 AM 57.2 °F 50.0 °F 77% 30.21 in - ENE 17.3 mph - N/A   Clear
9:00 AM 58 °F 50 °F 66%  in 12 mi ENE 17.3 mph - -   Scattered Clouds
9:55 AM 57.2 °F 50.0 °F 77% 30.21 in - ENE 17.3 mph - N/A   Clear
10:00 AM 57 °F 49 °F 68%  in 12 mi ENE 17.3 mph - -   Scattered Clouds
10:55 AM 59.0 °F 48.2 °F 67% 30.21 in 6.2 mi ENE 9.2 mph - N/A   Partly Cloudy
11:00 AM 59 °F 49 °F 60%  in 19 mi ENE 9.2 mph - -   Scattered Clouds
11:55 AM 60.8 °F 48.2 °F 63% 30.21 in - WSW 11.5 mph - N/A   Clear
12:00 PM 61 °F 49 °F 54%  in 19 mi WSW 11.5 mph - -  
12:55 PM 62.6 °F 48.2 °F 59% 30.21 in - WSW 11.5 mph - N/A   Clear
1:00 PM 63 °F 49 °F 49%  in 12 mi WSW 11.5 mph - -  
1:55 PM 62.6 °F 48.2 °F 59% 30.21 in 6.2 mi WSW 11.5 mph - N/A   Scattered Clouds
2:00 PM 63 °F 49 °F 49%  in 12 mi WSW 11.5 mph - -   Partly Cloudy
2:55 PM 60.8 °F 46.4 °F 59% 30.21 in 6.2 mi NE 6.9 mph - N/A   Scattered Clouds
3:00 PM 61 °F 47 °F 49%  in 12 mi NE 6.9 mph - -   Partly Cloudy
3:55 PM 60.8 °F 46.4 °F 59% 30.21 in 6.2 mi NE 6.9 mph - N/A   Scattered Clouds
4:00 PM 61 °F 47 °F 49%  in 12 mi NE 6.9 mph - -   Partly Cloudy
4:55 PM 62.6 °F 41.0 °F 45% 30.21 in - ENE 6.9 mph - N/A   Clear
5:00 PM 63 °F 41 °F 33%  in 12 mi ENE 6.9 mph - -  
5:55 PM 60.8 °F 42.8 °F 52% 30.21 in - ENE 6.9 mph - N/A   Clear
6:00 PM 61 °F 42 °F 38%  in 12 mi ENE 6.9 mph - -  
6:55 PM 59.0 °F 41.0 °F 51% 30.21 in - ENE 6.9 mph - N/A   Clear
7:00 PM 59 °F 40 °F 39%  in 12 mi ENE 6.9 mph - -  
7:55 PM 59.0 °F 41.0 °F 51% 30.21 in - NE 5.8 mph - N/A   Clear
8:00 PM 59 °F 40 °F 39%  in 9 mi NE 5.8 mph - -  
8:55 PM 59.0 °F 44.6 °F 59% 30.21 in - NE 6.9 mph - N/A   Clear
9:00 PM 59 °F 45 °F 50%  in 6 mi NE 6.9 mph - -  
9:55 PM 57.2 °F 53.6 °F 88% 30.21 in - NE 5.8 mph - N/A   Clear
10:00 PM 57 °F 54 °F 88%  in 6 mi NE 5.8 mph - -  
10:55 PM 59.0 °F 55.4 °F 88% 30.21 in - NE 6.9 mph - N/A   Clear
11:00 PM 59 °F 56 °F 87%  in 6 mi NE 6.9 mph - -